Year,Month,Day,Hour,Minute,Value (Times are PST for temperature in C)
2014,04,09,00,00,7.80
2014,04,09,00,01,7.80
2014,04,09,00,02,7.80
2014,04,09,00,03,7.80
2014,04,09,00,04,7.80
2014,04,09,00,05,7.80
2014,04,09,00,06,7.80
2014,04,09,00,07,7.80
2014,04,09,00,08,7.90
2014,04,09,00,09,7.90
2014,04,09,00,10,7.90
2014,04,09,00,11,8.00
2014,04,09,00,12,8.00
2014,04,09,00,13,8.00
2014,04,09,00,14,8.00
2014,04,09,00,15,8.00
2014,04,09,00,16,8.00
2014,04,09,00,17,8.00
2014,04,09,00,18,8.00
2014,04,09,00,19,8.00
2014,04,09,00,20,8.00
2014,04,09,00,21,8.00
2014,04,09,00,22,8.00
2014,04,09,00,23,8.10
2014,04,09,00,24,8.10
2014,04,09,00,25,8.10
2014,04,09,00,26,8.10
2014,04,09,00,27,8.00
2014,04,09,00,28,8.00
2014,04,09,00,29,8.00
2014,04,09,00,30,8.00
2014,04,09,00,31,8.00
2014,04,09,00,32,8.00
2014,04,09,00,33,8.00
2014,04,09,00,34,8.00
2014,04,09,00,35,8.00
2014,04,09,00,36,8.00
2014,04,09,00,37,8.00
2014,04,09,00,38,8.00
2014,04,09,00,39,8.00
2014,04,09,00,40,8.00
2014,04,09,00,41,8.00
2014,04,09,00,42,7.90
2014,04,09,00,43,7.90
2014,04,09,00,44,7.90
2014,04,09,00,45,7.90
2014,04,09,00,46,7.80
2014,04,09,00,47,7.80
2014,04,09,00,48,7.80
2014,04,09,00,49,7.80
2014,04,09,00,50,7.70
2014,04,09,00,51,7.70
2014,04,09,00,52,7.70
2014,04,09,00,53,7.70
2014,04,09,00,54,7.70
2014,04,09,00,55,7.70
2014,04,09,00,56,7.70
2014,04,09,00,57,7.70
2014,04,09,00,58,7.70
2014,04,09,00,59,7.70
2014,04,09,01,00,7.70
2014,04,09,01,01,7.70
2014,04,09,01,02,7.60
2014,04,09,01,03,7.60
2014,04,09,01,04,7.60
2014,04,09,01,05,7.60
2014,04,09,01,06,7.60
2014,04,09,01,07,7.60
2014,04,09,01,08,7.60
2014,04,09,01,09,7.60
2014,04,09,01,10,7.60
2014,04,09,01,11,7.60
2014,04,09,01,12,7.60
2014,04,09,01,13,7.60
2014,04,09,01,14,7.60
2014,04,09,01,15,7.60
2014,04,09,01,16,7.50
2014,04,09,01,17,7.50
2014,04,09,01,18,7.50
2014,04,09,01,19,7.50
2014,04,09,01,20,7.50
2014,04,09,01,21,7.40
2014,04,09,01,22,7.40
2014,04,09,01,23,7.40
2014,04,09,01,24,7.40
2014,04,09,01,25,7.40
2014,04,09,01,26,7.40
2014,04,09,01,27,7.30
2014,04,09,01,28,7.30
2014,04,09,01,29,7.30
2014,04,09,01,30,7.30
2014,04,09,01,31,7.30
2014,04,09,01,32,7.30
2014,04,09,01,33,7.20
2014,04,09,01,34,7.20
2014,04,09,01,35,7.20
2014,04,09,01,36,7.10
2014,04,09,01,37,7.10
2014,04,09,01,38,7.10
2014,04,09,01,39,7.00
2014,04,09,01,40,7.00
2014,04,09,01,41,7.00
2014,04,09,01,42,7.00
2014,04,09,01,43,7.00
2014,04,09,01,44,7.00
2014,04,09,01,45,7.00
2014,04,09,01,46,7.00
2014,04,09,01,47,7.00
2014,04,09,01,48,7.00
2014,04,09,01,49,7.00
2014,04,09,01,50,6.90
2014,04,09,01,51,6.90
2014,04,09,01,52,6.90
2014,04,09,01,53,6.90
2014,04,09,01,54,6.90
2014,04,09,01,55,6.80
2014,04,09,01,56,6.80
2014,04,09,01,57,6.80
2014,04,09,01,58,6.80
2014,04,09,01,59,6.70
2014,04,09,02,00,6.70
2014,04,09,02,01,6.70
2014,04,09,02,02,6.60
2014,04,09,02,03,6.60
2014,04,09,02,04,6.60
2014,04,09,02,05,6.60
2014,04,09,02,06,6.60
2014,04,09,02,07,6.60
2014,04,09,02,08,6.60
2014,04,09,02,09,6.60
2014,04,09,02,10,6.60
2014,04,09,02,11,6.60
2014,04,09,02,12,6.60
2014,04,09,02,13,6.40
2014,04,09,02,14,6.40
2014,04,09,02,15,6.40
2014,04,09,02,16,6.40
2014,04,09,02,17,6.40
2014,04,09,02,18,6.40
2014,04,09,02,19,6.30
2014,04,09,02,20,6.30
2014,04,09,02,21,6.30
2014,04,09,02,22,6.30
2014,04,09,02,23,6.20
2014,04,09,02,24,6.20
2014,04,09,02,25,6.20
2014,04,09,02,26,6.20
2014,04,09,02,27,6.20
2014,04,09,02,28,6.20
2014,04,09,02,29,6.20
2014,04,09,02,30,6.20
2014,04,09,02,31,6.10
2014,04,09,02,32,6.10
2014,04,09,02,33,6.10
2014,04,09,02,34,6.10
2014,04,09,02,35,6.10
2014,04,09,02,36,6.10
2014,04,09,02,37,6.10
2014,04,09,02,38,6.10
2014,04,09,02,39,6.10
2014,04,09,02,40,6.00
2014,04,09,02,41,6.00
2014,04,09,02,42,6.00
2014,04,09,02,43,6.00
2014,04,09,02,44,6.00
2014,04,09,02,45,6.00
2014,04,09,02,46,6.00
2014,04,09,02,47,6.00
2014,04,09,02,48,6.00
2014,04,09,02,49,5.90
2014,04,09,02,50,5.90
2014,04,09,02,51,5.90
2014,04,09,02,52,5.80
2014,04,09,02,53,5.80
2014,04,09,02,54,5.80
2014,04,09,02,55,5.70
2014,04,09,02,56,5.70
2014,04,09,02,57,5.70
2014,04,09,02,58,5.70
2014,04,09,02,59,5.70
2014,04,09,03,00,5.70
2014,04,09,03,01,5.60
2014,04,09,03,02,5.60
2014,04,09,03,03,5.60
2014,04,09,03,04,5.60
2014,04,09,03,05,5.50
2014,04,09,03,06,5.50
2014,04,09,03,07,5.50
2014,04,09,03,08,5.50
2014,04,09,03,09,5.50
2014,04,09,03,10,5.40
2014,04,09,03,11,5.40
2014,04,09,03,12,5.40
2014,04,09,03,13,5.40
2014,04,09,03,14,5.40
2014,04,09,03,15,5.50
2014,04,09,03,16,5.50
2014,04,09,03,17,5.50
2014,04,09,03,18,5.60
2014,04,09,03,19,5.60
2014,04,09,03,20,5.60
2014,04,09,03,21,5.60
2014,04,09,03,22,5.70
2014,04,09,03,23,5.60
2014,04,09,03,24,5.60
2014,04,09,03,25,5.60
2014,04,09,03,26,5.60
2014,04,09,03,27,5.60
2014,04,09,03,28,5.60
2014,04,09,03,29,5.60
2014,04,09,03,30,5.60
2014,04,09,03,31,5.60
2014,04,09,03,32,5.60
2014,04,09,03,33,5.50
2014,04,09,03,34,5.50
2014,04,09,03,35,5.50
2014,04,09,03,36,5.50
2014,04,09,03,37,5.40
2014,04,09,03,38,5.40
2014,04,09,03,39,5.40
2014,04,09,03,40,5.30
2014,04,09,03,41,5.30
2014,04,09,03,42,5.30
2014,04,09,03,43,5.30
2014,04,09,03,44,5.30
2014,04,09,03,45,5.30
2014,04,09,03,46,5.30
2014,04,09,03,47,5.30
2014,04,09,03,48,5.30
2014,04,09,03,49,5.30
2014,04,09,03,50,5.30
2014,04,09,03,51,5.30
2014,04,09,03,52,5.30
2014,04,09,03,53,5.30
2014,04,09,03,54,5.20
2014,04,09,03,55,5.20
2014,04,09,03,56,5.10
2014,04,09,03,57,5.10
2014,04,09,03,58,5.10
2014,04,09,03,59,5.10
2014,04,09,04,00,5.10
2014,04,09,04,01,5.00
2014,04,09,04,02,4.90
2014,04,09,04,03,4.90
2014,04,09,04,04,4.90
2014,04,09,04,05,4.90
2014,04,09,04,06,4.90
2014,04,09,04,07,4.80
2014,04,09,04,08,4.80
2014,04,09,04,09,4.80
2014,04,09,04,10,4.70
2014,04,09,04,11,4.70
2014,04,09,04,12,4.70
2014,04,09,04,13,4.60
2014,04,09,04,14,4.60
2014,04,09,04,15,4.60
2014,04,09,04,16,4.60
2014,04,09,04,17,4.60
2014,04,09,04,18,4.60
2014,04,09,04,19,4.50
2014,04,09,04,20,4.50
2014,04,09,04,21,4.50
2014,04,09,04,22,4.50
2014,04,09,04,23,4.50
2014,04,09,04,24,4.40
2014,04,09,04,25,4.40
2014,04,09,04,26,4.40
2014,04,09,04,27,4.40
2014,04,09,04,28,4.30
2014,04,09,04,29,4.30
2014,04,09,04,30,4.30
2014,04,09,04,31,4.20
2014,04,09,04,32,4.20
2014,04,09,04,33,4.20
2014,04,09,04,34,4.20
2014,04,09,04,35,4.20
2014,04,09,04,36,4.20
2014,04,09,04,37,4.20
2014,04,09,04,38,4.20
2014,04,09,04,39,4.20
2014,04,09,04,40,4.20
2014,04,09,04,41,4.20
2014,04,09,04,42,4.20
2014,04,09,04,43,4.20
2014,04,09,04,44,4.10
2014,04,09,04,45,4.10
2014,04,09,04,46,4.10
2014,04,09,04,47,4.10
2014,04,09,04,48,4.10
2014,04,09,04,49,4.00
2014,04,09,04,50,4.00
2014,04,09,04,51,4.00
2014,04,09,04,52,4.00
2014,04,09,04,53,3.90
2014,04,09,04,54,3.90
2014,04,09,04,55,3.80
2014,04,09,04,56,3.80
2014,04,09,04,57,3.80
2014,04,09,04,58,3.80
2014,04,09,04,59,3.80
2014,04,09,05,00,3.80
2014,04,09,05,01,3.80
2014,04,09,05,02,3.80
2014,04,09,05,03,3.80
2014,04,09,05,04,3.80
2014,04,09,05,05,3.90
2014,04,09,05,06,3.90
2014,04,09,05,07,3.90
2014,04,09,05,08,3.90
2014,04,09,05,09,4.00
2014,04,09,05,10,4.00
2014,04,09,05,11,4.00
2014,04,09,05,12,4.00
2014,04,09,05,13,4.00
2014,04,09,05,14,4.00
2014,04,09,05,15,4.00
2014,04,09,05,16,4.00
2014,04,09,05,17,4.00
2014,04,09,05,18,4.00
2014,04,09,05,19,4.00
2014,04,09,05,20,4.00
2014,04,09,05,21,4.00
2014,04,09,05,22,4.00
2014,04,09,05,23,4.00
2014,04,09,05,24,4.00
2014,04,09,05,25,3.90
2014,04,09,05,26,3.90
2014,04,09,05,27,3.90
2014,04,09,05,28,3.90
2014,04,09,05,29,3.90
2014,04,09,05,30,3.80
2014,04,09,05,31,3.80
2014,04,09,05,32,3.80
2014,04,09,05,33,3.80
2014,04,09,05,34,3.80
2014,04,09,05,35,3.80
2014,04,09,05,36,3.80
2014,04,09,05,37,3.80
2014,04,09,05,38,3.80
2014,04,09,05,39,3.80
2014,04,09,05,40,3.70
2014,04,09,05,41,3.70
2014,04,09,05,42,3.70
2014,04,09,05,43,3.70
2014,04,09,05,44,3.60
2014,04,09,05,45,3.60
2014,04,09,05,46,3.60
2014,04,09,05,47,3.50
2014,04,09,05,48,3.50
2014,04,09,05,49,3.50
2014,04,09,05,50,3.50
2014,04,09,05,51,3.40
2014,04,09,05,52,3.40
2014,04,09,05,53,3.40
2014,04,09,05,54,3.30
2014,04,09,05,55,3.30
2014,04,09,05,56,3.30
2014,04,09,05,57,3.30
2014,04,09,05,58,3.30
2014,04,09,05,59,3.30
2014,04,09,06,00,3.30
2014,04,09,06,01,3.30
2014,04,09,06,02,3.20
2014,04,09,06,03,3.20
2014,04,09,06,04,3.20
2014,04,09,06,05,3.20
2014,04,09,06,06,3.20
2014,04,09,06,07,3.20
2014,04,09,06,08,3.10
2014,04,09,06,09,3.10
2014,04,09,06,10,3.10
2014,04,09,06,11,3.10
2014,04,09,06,12,3.10
2014,04,09,06,13,3.10
2014,04,09,06,14,3.10
2014,04,09,06,15,3.10
2014,04,09,06,16,2.90
2014,04,09,06,17,2.90
2014,04,09,06,18,2.90
2014,04,09,06,19,2.90
2014,04,09,06,20,2.90
2014,04,09,06,21,2.90
2014,04,09,06,22,2.80
2014,04,09,06,23,2.80
2014,04,09,06,24,2.80
2014,04,09,06,25,2.80
2014,04,09,06,26,2.80
2014,04,09,06,27,2.80
2014,04,09,06,28,2.80
2014,04,09,06,29,2.80
2014,04,09,06,30,2.80
2014,04,09,06,31,2.80
2014,04,09,06,32,2.80
2014,04,09,06,33,2.80
2014,04,09,06,34,2.80
2014,04,09,06,35,2.90
2014,04,09,06,36,2.90
2014,04,09,06,37,2.90
2014,04,09,06,38,2.90
2014,04,09,06,39,2.90
2014,04,09,06,40,2.90
2014,04,09,06,41,2.90
2014,04,09,06,42,2.90
2014,04,09,06,43,2.90
2014,04,09,06,44,2.90
2014,04,09,06,45,2.90
2014,04,09,06,46,2.90
2014,04,09,06,47,2.90
2014,04,09,06,48,2.90
2014,04,09,06,49,2.90
2014,04,09,06,50,2.90
2014,04,09,06,51,3.00
2014,04,09,06,52,3.10
2014,04,09,06,53,3.10
2014,04,09,06,54,3.10
2014,04,09,06,55,3.10
2014,04,09,06,56,3.10
2014,04,09,06,57,3.10
2014,04,09,06,58,3.10
2014,04,09,06,59,3.10
2014,04,09,07,00,3.10
2014,04,09,07,01,3.10
2014,04,09,07,02,3.10
2014,04,09,07,03,3.20
2014,04,09,07,04,3.20
2014,04,09,07,05,3.20
2014,04,09,07,06,3.20
2014,04,09,07,07,3.20
2014,04,09,07,08,3.20
2014,04,09,07,09,3.20
2014,04,09,07,10,3.20
2014,04,09,07,11,3.20
2014,04,09,07,12,3.20
2014,04,09,07,13,3.20
2014,04,09,07,14,3.30
2014,04,09,07,15,3.30
2014,04,09,07,16,3.30
2014,04,09,07,17,3.30
2014,04,09,07,18,3.30
2014,04,09,07,19,3.30
2014,04,09,07,20,3.30
2014,04,09,07,21,3.30
2014,04,09,07,22,3.30
2014,04,09,07,23,3.30
2014,04,09,07,24,3.30
2014,04,09,07,25,3.40
2014,04,09,07,26,3.40
2014,04,09,07,27,3.50
2014,04,09,07,28,3.50
2014,04,09,07,29,3.50
2014,04,09,07,30,3.60
2014,04,09,07,31,3.60
2014,04,09,07,32,3.60
2014,04,09,07,33,3.70
2014,04,09,07,34,3.70
2014,04,09,07,35,3.70
2014,04,09,07,36,3.80
2014,04,09,07,37,3.80
2014,04,09,07,38,3.80
2014,04,09,07,39,3.80
2014,04,09,07,40,3.80
2014,04,09,07,41,3.80
2014,04,09,07,42,3.90
2014,04,09,07,43,3.90
2014,04,09,07,44,4.00
2014,04,09,07,45,4.00
2014,04,09,07,46,4.00
2014,04,09,07,47,4.00
2014,04,09,07,48,4.00
2014,04,09,07,49,4.10
2014,04,09,07,50,4.10
2014,04,09,07,51,4.10
2014,04,09,07,52,4.20
2014,04,09,07,53,4.20
2014,04,09,07,54,4.20
2014,04,09,07,55,4.30
2014,04,09,07,56,4.40
2014,04,09,07,57,4.50
2014,04,09,07,58,4.50
2014,04,09,07,59,4.60
2014,04,09,08,00,4.70
2014,04,09,08,01,4.80
2014,04,09,08,02,4.80
2014,04,09,08,03,4.90
2014,04,09,08,04,5.00
2014,04,09,08,05,5.10
2014,04,09,08,06,5.20
2014,04,09,08,07,5.30
2014,04,09,08,08,5.30
2014,04,09,08,09,5.40
2014,04,09,08,10,5.40
2014,04,09,08,11,5.50
2014,04,09,08,12,5.50
2014,04,09,08,13,5.60
2014,04,09,08,14,5.60
2014,04,09,08,15,5.70
2014,04,09,08,16,5.70
2014,04,09,08,17,5.70
2014,04,09,08,18,5.80
2014,04,09,08,19,5.80
2014,04,09,08,20,5.90
2014,04,09,08,21,6.00
2014,04,09,08,22,6.10
2014,04,09,08,23,6.20
2014,04,09,08,24,6.20
2014,04,09,08,25,6.20
2014,04,09,08,26,6.30
2014,04,09,08,27,6.40
2014,04,09,08,28,6.40
2014,04,09,08,29,6.50
2014,04,09,08,30,6.60
2014,04,09,08,31,6.70
2014,04,09,08,32,6.80
2014,04,09,08,33,7.00
2014,04,09,08,34,7.10
2014,04,09,08,35,7.20
2014,04,09,08,36,7.40
2014,04,09,08,37,7.60
2014,04,09,08,38,7.70
2014,04,09,08,39,7.90
2014,04,09,08,40,8.00
2014,04,09,08,41,8.10
2014,04,09,08,42,8.20
2014,04,09,08,43,8.30
2014,04,09,08,44,8.40
2014,04,09,08,45,8.50
2014,04,09,08,46,8.60
2014,04,09,08,47,8.70
2014,04,09,08,48,8.80
2014,04,09,08,49,8.90
2014,04,09,08,50,8.90
2014,04,09,08,51,9.00
2014,04,09,08,52,9.00
2014,04,09,08,53,9.10
2014,04,09,08,54,9.00
2014,04,09,08,55,9.00
2014,04,09,08,56,9.00
2014,04,09,08,57,9.00
2014,04,09,08,58,9.00
2014,04,09,08,59,9.00
2014,04,09,09,00,9.00
2014,04,09,09,01,9.00
2014,04,09,09,02,9.00
2014,04,09,09,03,9.00
2014,04,09,09,04,9.00
2014,04,09,09,05,9.00
2014,04,09,09,06,9.00
2014,04,09,09,07,9.10
2014,04,09,09,08,9.10
2014,04,09,09,09,9.10
2014,04,09,09,10,9.20
2014,04,09,09,11,9.20
2014,04,09,09,12,9.30
2014,04,09,09,13,9.30
2014,04,09,09,14,9.40
2014,04,09,09,15,9.40
2014,04,09,09,16,9.50
2014,04,09,09,17,9.60
2014,04,09,09,18,9.70
2014,04,09,09,19,9.80
2014,04,09,09,20,9.90
2014,04,09,09,21,10.00
2014,04,09,09,22,10.10
2014,04,09,09,23,10.20
2014,04,09,09,24,10.30
2014,04,09,09,25,10.40
2014,04,09,09,26,10.50
2014,04,09,09,27,10.60
2014,04,09,09,28,10.70
2014,04,09,09,29,10.70
2014,04,09,09,30,10.70
2014,04,09,09,31,10.70
2014,04,09,09,32,10.70
2014,04,09,09,33,10.70
2014,04,09,09,34,10.70
2014,04,09,09,35,10.70
2014,04,09,09,36,10.70
2014,04,09,09,37,10.60
2014,04,09,09,38,10.50
2014,04,09,09,39,10.40
2014,04,09,09,40,10.40
2014,04,09,09,41,10.40
2014,04,09,09,42,10.50
2014,04,09,09,43,10.60
2014,04,09,09,44,10.60
2014,04,09,09,45,10.60
2014,04,09,09,46,10.60
2014,04,09,09,47,10.70
2014,04,09,09,48,10.70
2014,04,09,09,49,10.70
2014,04,09,09,50,10.70
2014,04,09,09,51,10.80
2014,04,09,09,52,10.80
2014,04,09,09,53,10.90
2014,04,09,09,54,10.90
2014,04,09,09,55,10.90
2014,04,09,09,56,11.10
2014,04,09,09,57,11.10
2014,04,09,09,58,11.10
2014,04,09,09,59,11.00
2014,04,09,10,00,10.90
2014,04,09,10,01,10.90
2014,04,09,10,02,10.90
2014,04,09,10,03,10.90
2014,04,09,10,04,10.80
2014,04,09,10,05,10.70
2014,04,09,10,06,10.70
2014,04,09,10,07,10.70
2014,04,09,10,08,10.60
2014,04,09,10,09,10.70
2014,04,09,10,10,10.70
2014,04,09,10,11,10.70
2014,04,09,10,12,10.70
2014,04,09,10,13,10.70
2014,04,09,10,14,10.80
2014,04,09,10,15,10.80
2014,04,09,10,16,10.70
2014,04,09,10,17,10.70
2014,04,09,10,18,10.60
2014,04,09,10,19,10.70
2014,04,09,10,20,10.70
2014,04,09,10,21,10.90
2014,04,09,10,22,10.90
2014,04,09,10,23,11.00
2014,04,09,10,24,11.10
2014,04,09,10,25,11.20
2014,04,09,10,26,11.30
2014,04,09,10,27,11.50
2014,04,09,10,28,11.60
2014,04,09,10,29,11.70
2014,04,09,10,30,11.80
2014,04,09,10,31,11.80
2014,04,09,10,32,11.90
2014,04,09,10,33,12.00
2014,04,09,10,34,12.00
2014,04,09,10,35,12.10
2014,04,09,10,36,12.20
2014,04,09,10,37,12.20
2014,04,09,10,38,12.30
2014,04,09,10,39,12.30
2014,04,09,10,40,12.10
2014,04,09,10,41,12.00
2014,04,09,10,42,11.90
2014,04,09,10,43,11.80
2014,04,09,10,44,11.70
2014,04,09,10,45,11.60
2014,04,09,10,46,11.50
2014,04,09,10,47,11.40
2014,04,09,10,48,11.40
2014,04,09,10,49,11.40
2014,04,09,10,50,11.40
2014,04,09,10,51,11.50
2014,04,09,10,52,11.60
2014,04,09,10,53,11.70
2014,04,09,10,54,11.70
2014,04,09,10,55,11.80
2014,04,09,10,56,11.90
2014,04,09,10,57,12.00
2014,04,09,10,58,12.00
2014,04,09,10,59,12.00
2014,04,09,11,00,12.00
2014,04,09,11,01,11.90
2014,04,09,11,02,11.90
2014,04,09,11,03,11.80
2014,04,09,11,04,11.90
2014,04,09,11,05,12.00
2014,04,09,11,06,12.00
2014,04,09,11,07,12.10
2014,04,09,11,08,12.10
2014,04,09,11,09,12.20
2014,04,09,11,10,12.20
2014,04,09,11,11,12.30
2014,04,09,11,12,12.30
2014,04,09,11,13,12.30
2014,04,09,11,14,12.30
2014,04,09,11,15,12.30
2014,04,09,11,16,12.30
2014,04,09,11,17,12.30
2014,04,09,11,18,12.30
2014,04,09,11,19,12.20
2014,04,09,11,20,12.20
2014,04,09,11,21,12.20
2014,04,09,11,22,12.20
2014,04,09,11,23,12.20
2014,04,09,11,24,12.10
2014,04,09,11,25,12.00
2014,04,09,11,26,11.90
2014,04,09,11,27,11.80
2014,04,09,11,28,11.80
2014,04,09,11,29,11.80
2014,04,09,11,30,11.80
2014,04,09,11,31,11.80
2014,04,09,11,32,11.80
2014,04,09,11,33,11.80
2014,04,09,11,34,11.80
2014,04,09,11,35,11.80
2014,04,09,11,36,11.80
2014,04,09,11,37,11.80
2014,04,09,11,38,11.80
2014,04,09,11,39,11.80
2014,04,09,11,40,11.70
2014,04,09,11,41,11.70
2014,04,09,11,42,11.70
2014,04,09,11,43,11.70
2014,04,09,11,44,11.70
2014,04,09,11,45,11.80
2014,04,09,11,46,11.80
2014,04,09,11,47,11.80
2014,04,09,11,48,11.80
2014,04,09,11,49,11.90
2014,04,09,11,50,12.00
2014,04,09,11,51,12.10
2014,04,09,11,52,12.10
2014,04,09,11,53,12.20
2014,04,09,11,54,12.30
2014,04,09,11,55,12.40
2014,04,09,11,56,12.40
2014,04,09,11,57,12.50
2014,04,09,11,58,12.50
2014,04,09,11,59,12.50
2014,04,09,12,00,12.50
2014,04,09,12,01,12.60
2014,04,09,12,02,12.60
2014,04,09,12,03,12.50
2014,04,09,12,04,12.50
2014,04,09,12,05,12.50
2014,04,09,12,06,12.60
2014,04,09,12,07,12.70
2014,04,09,12,08,12.70
2014,04,09,12,09,12.70
2014,04,09,12,10,12.80
2014,04,09,12,11,12.80
2014,04,09,12,12,12.80
2014,04,09,12,13,12.80
2014,04,09,12,14,12.80
2014,04,09,12,15,12.70
2014,04,09,12,16,12.60
2014,04,09,12,17,12.50
2014,04,09,12,18,12.30
2014,04,09,12,19,12.30
2014,04,09,12,20,12.20
2014,04,09,12,21,12.10
2014,04,09,12,22,12.00
2014,04,09,12,23,11.90
2014,04,09,12,24,11.80
2014,04,09,12,25,11.80
2014,04,09,12,26,11.70
2014,04,09,12,27,11.70
2014,04,09,12,28,11.70
2014,04,09,12,29,11.80
2014,04,09,12,30,11.80
2014,04,09,12,31,11.80
2014,04,09,12,32,11.80
2014,04,09,12,33,11.70
2014,04,09,12,34,11.70
2014,04,09,12,35,11.70
2014,04,09,12,36,11.70
2014,04,09,12,37,11.60
2014,04,09,12,38,11.60
2014,04,09,12,39,11.60
2014,04,09,12,40,11.60
2014,04,09,12,41,11.60
2014,04,09,12,42,11.60
2014,04,09,12,43,11.60
2014,04,09,12,44,11.70
2014,04,09,12,45,11.80
2014,04,09,12,46,11.90
2014,04,09,12,47,11.90
2014,04,09,12,48,12.00
2014,04,09,12,49,12.10
2014,04,09,12,50,12.20
2014,04,09,12,51,12.20
2014,04,09,12,52,12.30
2014,04,09,12,53,12.30
2014,04,09,12,54,12.30
2014,04,09,12,55,12.30
2014,04,09,12,56,12.40
2014,04,09,12,57,12.50
2014,04,09,12,58,12.50
2014,04,09,12,59,12.60
2014,04,09,13,00,12.60
2014,04,09,13,01,12.70
2014,04,09,13,02,12.80
2014,04,09,13,03,12.90
2014,04,09,13,04,13.00
2014,04,09,13,05,13.10
2014,04,09,13,06,13.10
2014,04,09,13,07,13.20
2014,04,09,13,08,13.20
2014,04,09,13,09,13.30
2014,04,09,13,10,13.50
2014,04,09,13,11,13.60
2014,04,09,13,12,13.60
2014,04,09,13,13,13.60
2014,04,09,13,14,13.50
2014,04,09,13,15,13.50
2014,04,09,13,16,13.40
2014,04,09,13,17,13.40
2014,04,09,13,18,13.30
2014,04,09,13,19,13.20
2014,04,09,13,20,13.10
2014,04,09,13,21,13.10
2014,04,09,13,22,13.10
2014,04,09,13,23,13.00
2014,04,09,13,24,13.00
2014,04,09,13,25,13.00
2014,04,09,13,26,13.00
2014,04,09,13,27,13.10
2014,04,09,13,28,13.20
2014,04,09,13,29,13.30
2014,04,09,13,30,13.40
2014,04,09,13,31,13.50
2014,04,09,13,32,13.50
2014,04,09,13,33,13.60
2014,04,09,13,34,13.70
2014,04,09,13,35,13.80
2014,04,09,13,36,13.90
2014,04,09,13,37,13.90
2014,04,09,13,38,14.00
2014,04,09,13,39,14.10
2014,04,09,13,40,14.10
2014,04,09,13,41,14.20
2014,04,09,13,42,14.30
2014,04,09,13,43,14.40
2014,04,09,13,44,14.40
2014,04,09,13,45,14.40
2014,04,09,13,46,14.40
2014,04,09,13,47,14.30
2014,04,09,13,48,14.30
2014,04,09,13,49,14.20
2014,04,09,13,50,14.10
2014,04,09,13,51,14.10
2014,04,09,13,52,14.10
2014,04,09,13,53,14.10
2014,04,09,13,54,14.10
2014,04,09,13,55,14.20
2014,04,09,13,56,14.20
2014,04,09,13,57,14.20
2014,04,09,13,58,14.20
2014,04,09,13,59,14.20
2014,04,09,14,00,14.20
2014,04,09,14,01,14.20
2014,04,09,14,02,14.20
2014,04,09,14,03,14.20
2014,04,09,14,04,14.20
2014,04,09,14,05,14.10
2014,04,09,14,06,14.10
2014,04,09,14,07,14.00
2014,04,09,14,08,13.90
2014,04,09,14,09,13.80
2014,04,09,14,10,13.70
2014,04,09,14,11,13.70
2014,04,09,14,12,13.80
2014,04,09,14,13,13.80
2014,04,09,14,14,13.70
2014,04,09,14,15,13.70
2014,04,09,14,16,13.80
2014,04,09,14,17,13.80
2014,04,09,14,18,13.90
2014,04,09,14,19,13.90
2014,04,09,14,20,13.80
2014,04,09,14,21,13.70
2014,04,09,14,22,13.70
2014,04,09,14,23,13.70
2014,04,09,14,24,13.70
2014,04,09,14,25,13.60
2014,04,09,14,26,13.60
2014,04,09,14,27,13.60
2014,04,09,14,28,13.70
2014,04,09,14,29,13.70
2014,04,09,14,30,13.70
2014,04,09,14,31,13.70
2014,04,09,14,32,13.70
2014,04,09,14,33,13.80
2014,04,09,14,34,13.90
2014,04,09,14,35,14.10
2014,04,09,14,36,14.20
2014,04,09,14,37,14.30
2014,04,09,14,38,14.30
2014,04,09,14,39,14.30
2014,04,09,14,40,14.40
2014,04,09,14,41,14.40
2014,04,09,14,42,14.30
2014,04,09,14,43,14.20
2014,04,09,14,44,14.20
2014,04,09,14,45,14.20
2014,04,09,14,46,14.20
2014,04,09,14,47,14.20
2014,04,09,14,48,14.40
2014,04,09,14,49,14.50
2014,04,09,14,50,14.50
2014,04,09,14,51,14.50
2014,04,09,14,52,14.60
2014,04,09,14,53,14.60
2014,04,09,14,54,14.60
2014,04,09,14,55,14.60
2014,04,09,14,56,14.60
2014,04,09,14,57,14.60
2014,04,09,14,58,14.50
2014,04,09,14,59,14.50
2014,04,09,15,00,14.50
2014,04,09,15,01,14.30
2014,04,09,15,02,14.20
2014,04,09,15,03,14.10
2014,04,09,15,04,14.00
2014,04,09,15,05,13.90
2014,04,09,15,06,13.90
2014,04,09,15,07,13.90
2014,04,09,15,08,13.90
2014,04,09,15,09,13.90
2014,04,09,15,10,13.90
2014,04,09,15,11,13.90
2014,04,09,15,12,14.00
2014,04,09,15,13,14.00
2014,04,09,15,14,14.10
2014,04,09,15,15,14.10
2014,04,09,15,16,14.10
2014,04,09,15,17,14.20
2014,04,09,15,18,14.20
2014,04,09,15,19,14.20
2014,04,09,15,20,14.20
2014,04,09,15,21,14.20
2014,04,09,15,22,14.20
2014,04,09,15,23,14.20
2014,04,09,15,24,14.20
2014,04,09,15,25,14.20
2014,04,09,15,26,14.20
2014,04,09,15,27,14.30
2014,04,09,15,28,14.40
2014,04,09,15,29,14.50
2014,04,09,15,30,14.50
2014,04,09,15,31,14.60
2014,04,09,15,32,14.70
2014,04,09,15,33,14.60
2014,04,09,15,34,14.60
2014,04,09,15,35,14.60
2014,04,09,15,36,14.60
2014,04,09,15,37,14.60
2014,04,09,15,38,14.70
2014,04,09,15,39,14.70
2014,04,09,15,40,14.80
2014,04,09,15,41,14.80
2014,04,09,15,42,14.80
2014,04,09,15,43,14.80
2014,04,09,15,44,14.90
2014,04,09,15,45,14.90
2014,04,09,15,46,14.90
2014,04,09,15,47,14.90
2014,04,09,15,48,15.00
2014,04,09,15,49,15.00
2014,04,09,15,50,15.10
2014,04,09,15,51,15.00
2014,04,09,15,52,15.10
2014,04,09,15,53,15.10
2014,04,09,15,54,15.20
2014,04,09,15,55,15.10
2014,04,09,15,56,15.10
2014,04,09,15,57,15.00
2014,04,09,15,58,15.00
2014,04,09,15,59,15.00
2014,04,09,16,00,15.00
2014,04,09,16,01,15.00
2014,04,09,16,02,15.00
2014,04,09,16,03,15.00
2014,04,09,16,04,15.00
2014,04,09,16,05,15.00
2014,04,09,16,06,15.00
2014,04,09,16,07,15.10
2014,04,09,16,08,15.10
2014,04,09,16,09,15.20
2014,04,09,16,10,15.30
2014,04,09,16,11,15.30
2014,04,09,16,12,15.20
2014,04,09,16,13,15.10
2014,04,09,16,14,15.10
2014,04,09,16,15,15.20
2014,04,09,16,16,15.10
2014,04,09,16,17,14.90
2014,04,09,16,18,14.90
2014,04,09,16,19,14.90
2014,04,09,16,20,14.90
2014,04,09,16,21,14.80
2014,04,09,16,22,14.80
2014,04,09,16,23,14.80
2014,04,09,16,24,14.80
2014,04,09,16,25,14.90
2014,04,09,16,26,14.90
2014,04,09,16,27,14.90
2014,04,09,16,28,14.90
2014,04,09,16,29,14.90
2014,04,09,16,30,14.90
2014,04,09,16,31,14.90
2014,04,09,16,32,14.80
2014,04,09,16,33,14.80
2014,04,09,16,34,14.70
2014,04,09,16,35,14.70
2014,04,09,16,36,14.60
2014,04,09,16,37,14.60
2014,04,09,16,38,14.70
2014,04,09,16,39,14.70
2014,04,09,16,40,14.70
2014,04,09,16,41,14.70
2014,04,09,16,42,14.80
2014,04,09,16,43,14.80
2014,04,09,16,44,14.90
2014,04,09,16,45,15.00
2014,04,09,16,46,15.10
2014,04,09,16,47,15.00
2014,04,09,16,48,14.90
2014,04,09,16,49,14.90
2014,04,09,16,50,14.90
2014,04,09,16,51,14.90
2014,04,09,16,52,14.90
2014,04,09,16,53,15.00
2014,04,09,16,54,15.00
2014,04,09,16,55,15.10
2014,04,09,16,56,15.10
2014,04,09,16,57,15.10
2014,04,09,16,58,15.10
2014,04,09,16,59,15.20
2014,04,09,17,00,15.30
2014,04,09,17,01,15.30
2014,04,09,17,02,15.30
2014,04,09,17,03,15.30
2014,04,09,17,04,15.30
2014,04,09,17,05,15.40
2014,04,09,17,06,15.30
2014,04,09,17,07,15.20
2014,04,09,17,08,15.20
2014,04,09,17,09,15.00
2014,04,09,17,10,14.90
2014,04,09,17,11,14.80
2014,04,09,17,12,14.70
2014,04,09,17,13,14.60
2014,04,09,17,14,14.50
2014,04,09,17,15,14.40
2014,04,09,17,16,14.30
2014,04,09,17,17,14.20
2014,04,09,17,18,14.20
2014,04,09,17,19,14.20
2014,04,09,17,20,14.10
2014,04,09,17,21,14.00
2014,04,09,17,22,14.00
2014,04,09,17,23,13.90
2014,04,09,17,24,13.90
2014,04,09,17,25,13.80
2014,04,09,17,26,13.70
2014,04,09,17,27,13.70
2014,04,09,17,28,13.70
2014,04,09,17,29,13.70
2014,04,09,17,30,13.70
2014,04,09,17,31,13.70
2014,04,09,17,32,13.60
2014,04,09,17,33,13.60
2014,04,09,17,34,13.60
2014,04,09,17,35,13.60
2014,04,09,17,36,13.50
2014,04,09,17,37,13.40
2014,04,09,17,38,13.40
2014,04,09,17,39,13.40
2014,04,09,17,40,13.40
2014,04,09,17,41,13.40
2014,04,09,17,42,13.40
2014,04,09,17,43,13.40